Weather History for Edinburgh Airport, United Kingdom

Change the Weather History Date:

Friday, March 23, 2012

  Actual Average Record
Temperature  
Mean Temperature 44 °F -  
Max Temperature 50 °F 51 °F 59 °F (2005)
Min Temperature 37 °F 37 °F 26 °F (2003)
Degree Days  
Heating Degree Days 22    
Moisture  
Dew Point 42 °F    
Average Humidity 94    
Maximum Humidity 100    
Minimum Humidity 82    
Precipitation  
Precipitation 0.00 in 0.06 in - ()
Sea Level Pressure  
Sea Level Pressure 30.35 in    
Wind  
Wind Speed 7 mph ()    
Max Wind Speed 18 mph    
Max Gust Speed -    
Visibility 2.9 miles    
Events Fog    
Averages and records for this station are not official NWS values.
T = Trace of Precipitation, MM = Missing Value Source: Averaged Metar Reports

Daily Weather History Graph

Daily Weather History Graph

Search for Another Location

Airport:

Trip Planner

Search our weather history database for the weather conditions in past years. The results will help you decide how hot, cold, wet, or windy it might be!

Date:

Astronomy

Mar. 23, 2012 Rise Set
Actual Time 6:06 AM GMT 6:34 PM GMT
Civil Twilight 5:29 AM GMT 7:11 PM GMT
Nautical Twilight 4:45 AM GMT 7:56 PM GMT
Astronomical Twilight 3:57 AM GMT 8:44 PM GMT
Moon 5:51 AM GMT 8:05 PM GMT
Length of Visible Light 13h 41m
Length of Day
12h 27m
New Moon, 1% of the Moon is Illuminated
Mar 23
New Moon
Mar 30
First Quarter
Apr 6
Full
Apr 13
Last Quarter
Apr 21
New

Hourly Weather History & Observations

Time (GMT) Temp. Windchill Dew Point Humidity Pressure Visibility Wind Dir Wind Speed Gust Speed Precip Events Conditions
12:20 AM 39.2 °F 35.9 °F 37.4 °F 93% 30.42 in - ENE 4.6 mph - N/A   Mist
12:50 AM 39.2 °F - 39.2 °F 100% 30.42 in 2.5 mi Calm Calm - N/A   Mist
1:20 AM 37.4 °F 33.8 °F 35.6 °F 93% 30.42 in 2.8 mi ENE 4.6 mph - N/A   Mist
1:50 AM 37.4 °F 33.8 °F 35.6 °F 93% 30.42 in 2.8 mi East 4.6 mph - N/A   Mist
2:20 AM 37.4 °F 33.8 °F 37.4 °F 100% 30.39 in 1.9 mi ENE 4.6 mph - N/A   Mist
2:50 AM 37.4 °F - 35.6 °F 93% 30.39 in 0.7 mi ENE 2.3 mph - N/A   Mist
3:20 AM 37.4 °F 32.8 °F 35.6 °F 93% 30.39 in 0.9 mi NE 5.8 mph - N/A   Mist
3:50 AM 39.2 °F - 39.2 °F 100% 30.39 in 1.0 mi NE 2.3 mph - N/A   Mostly Cloudy
4:20 AM 41.0 °F 39.0 °F 39.2 °F 93% 30.39 in 1.6 mi Variable 3.5 mph - N/A   Overcast
4:50 AM 41.0 °F 35.8 °F 41.0 °F 100% 30.36 in 0.7 mi ENE 8.1 mph - N/A   Overcast
5:20 AM 41.0 °F 36.4 °F 41.0 °F 100% 30.36 in 1.2 mi ENE 6.9 mph - N/A   Overcast
5:50 AM 42.8 °F 36.6 °F 41.0 °F 93% 30.36 in 0.7 mi ENE 11.5 mph - N/A   Overcast
6:20 AM 42.8 °F 37.5 °F 41.0 °F 93% 30.36 in 0.4 mi ENE 9.2 mph - N/A Fog Fog
6:50 AM 42.8 °F 37.0 °F 42.8 °F 100% 30.36 in 0.4 mi ENE 10.4 mph - N/A Fog Fog
7:20 AM 42.8 °F 37.5 °F 42.8 °F 100% 30.36 in 0.5 mi ENE 9.2 mph - N/A Fog Fog
7:50 AM 42.8 °F 38.0 °F 42.8 °F 100% 30.39 in 0.4 mi ENE 8.1 mph - N/A Fog Fog
8:20 AM 42.8 °F 37.5 °F 42.8 °F 100% 30.39 in 0.2 mi ENE 9.2 mph - N/A Fog Fog
8:50 AM 42.8 °F 38.0 °F 42.8 °F 100% 30.39 in 0.4 mi ENE 8.1 mph - N/A Fog Fog
9:20 AM 42.8 °F 37.0 °F 42.8 °F 100% 30.36 in 0.1 mi ENE 10.4 mph - N/A Fog Fog
9:50 AM 42.8 °F 36.6 °F 42.8 °F 100% 30.36 in 0.1 mi ENE 11.5 mph - N/A Fog Fog
10:20 AM 44.6 °F 38.1 °F 42.8 °F 93% 30.36 in 1.0 mi ENE 13.8 mph - N/A   Overcast
10:50 AM 44.6 °F 38.8 °F 44.6 °F 100% 30.36 in 1.7 mi NE 11.5 mph - N/A   Overcast
11:20 AM 44.6 °F 38.4 °F 44.6 °F 100% 30.36 in 1.2 mi NE 12.7 mph - N/A   Overcast
11:50 AM 44.6 °F 38.1 °F 44.6 °F 100% 30.36 in 3.7 mi NE 13.8 mph - N/A   Overcast
12:20 PM 46.4 °F 39.8 °F 44.6 °F 93% 30.36 in 5.0 mi NE 16.1 mph - N/A   Mostly Cloudy
12:50 PM 46.4 °F 39.2 °F 44.6 °F 93% 30.36 in 6.2 mi ENE 18.4 mph - N/A   Mostly Cloudy
1:20 PM 50.0 °F - 44.6 °F 82% 30.33 in 6.2 mi ENE 15.0 mph - N/A   Partly Cloudy
1:50 PM 48.2 °F - 44.6 °F 87% 30.33 in 6.2 mi NNE 13.8 mph - N/A   Partly Cloudy
2:20 PM 48.2 °F - 44.6 °F 87% 30.33 in 6.2 mi NE 16.1 mph - N/A   Partly Cloudy
2:50 PM 48.2 °F - 44.6 °F 87% 30.33 in 5.6 mi NE 13.8 mph - N/A   Unknown
3:20 PM 48.2 °F - 44.6 °F 87% 30.33 in - NE 12.7 mph - N/A   Clear
3:50 PM 48.2 °F - 44.6 °F 87% 30.30 in - NE 11.5 mph - N/A   Clear
4:20 PM 48.2 °F - 44.6 °F 87% 30.30 in - NE 9.2 mph - N/A   Clear
4:50 PM 48.2 °F - 44.6 °F 87% 30.30 in - NNE 6.9 mph - N/A   Clear
5:20 PM 46.4 °F 41.9 °F 42.8 °F 87% 30.30 in - NE 9.2 mph - N/A   Clear
5:50 PM 46.4 °F 42.4 °F 42.8 °F 87% 30.30 in 5.6 mi NNE 8.1 mph - N/A   Unknown
6:20 PM 44.6 °F 39.7 °F 42.8 °F 93% 30.30 in 5.6 mi NE 9.2 mph - N/A   Unknown
6:50 PM 44.6 °F 39.2 °F 42.8 °F 93% 30.30 in 5.0 mi NE 10.4 mph - N/A   Unknown
7:20 PM 44.6 °F 40.7 °F 42.8 °F 93% 30.33 in 5.0 mi ENE 6.9 mph - N/A   Unknown
7:50 PM 42.8 °F 38.6 °F 41.0 °F 93% 30.33 in 5.0 mi East 6.9 mph - N/A   Unknown
8:20 PM 42.8 °F 41.1 °F 41.0 °F 93% 30.33 in 5.0 mi ENE 3.5 mph - N/A   Unknown
8:50 PM 42.8 °F 40.1 °F 42.8 °F 100% 30.33 in 5.0 mi ENE 4.6 mph - N/A   Unknown
9:20 PM 42.8 °F 40.1 °F 41.0 °F 93% 30.33 in 5.0 mi East 4.6 mph - N/A   Unknown
9:50 PM 42.8 °F 39.3 °F 41.0 °F 93% 30.36 in 4.3 mi East 5.8 mph - N/A   Unknown
10:20 PM 42.8 °F 39.3 °F 41.0 °F 93% 30.36 in 3.7 mi East 5.8 mph - N/A   Unknown
10:50 PM 42.8 °F 39.3 °F 41.0 °F 93% 30.36 in 3.7 mi East 5.8 mph - N/A   Unknown
11:20 PM 42.8 °F 39.3 °F 41.0 °F 93% 30.33 in 2.8 mi ENE 5.8 mph - N/A   Mist
11:50 PM 42.8 °F 38.6 °F 41.0 °F 93% 30.33 in 2.8 mi East 6.9 mph - N/A   Mist